Honolulu, HI

2:44 AM HST on May 23, 2018 (GMT -1000)
Honolulu International

Weather History for PHNL - August, 2014

Change the Weather History Date:

Thursday, August 28, 2014

  Actual Average Record
Temperature  
Mean Temperature 81 °F 82 °F  
Max Temperature 89 °F 89 °F 92 °F (1970)
Min Temperature 73 °F 75 °F 69 °F (1979)
Cooling Degree Days 16 17  
Month to date cooling degree days 495 408  
Year to date cooling degree days 3107 2868  
Since 1 June cooling degree days 1498 1366  
Growing Degree Days 31 (Base 50)    
Moisture  
Dew Point 66 °F    
Average Humidity 59    
Maximum Humidity 74    
Minimum Humidity 43    
Precipitation  
Precipitation T in 0.02 in 0.16 in (1960)
Month to date precipitation 0.56 0.43  
Year to date precipitation 12.23 8.77  
Snow  
Snow 0.00 in - - ()
Month to date snowfall 0.0  
Since 1 June snowfall 0.0  
Since 1 July snowfall 0.0  
Snow Depth 0.00 in    
Sea Level Pressure  
Sea Level Pressure 29.89 in    
Wind  
Wind Speed 7 mph (NNE)    
Max Wind Speed 21 mph    
Max Gust Speed 26 mph    
Visibility 10 miles    
Events      
T = Trace of Precipitation, MM = Missing Value Source: NWS Daily Summary

Daily Weather History Graph

Daily Weather History Graph

Search for Another Location

Airport or City:

Astronomy

Aug. 28, 2014 Rise Set
Actual Time 6:14 AM HST 6:51 PM HST
Civil Twilight 5:51 AM HST 7:13 PM HST
Nautical Twilight 5:24 AM HST 7:40 PM HST
Astronomical Twilight 4:57 AM HST 8:07 PM HST
Moon 8:49 AM HST (8/28) 8:52 PM HST (8/28)
Length of Visible Light 13h 22m
Length of Day
12h 37m
Waxing Crescent, 10% of the Moon is Illuminated
Aug 28
Waxing Crescent
Sep 2
First Quarter
Sep 8
Full
Sep 15
Last Quarter
Sep 23
New

Hourly Weather History & Observations

Time (HST) Temp. Heat Index Dew Point Humidity Pressure Visibility Wind Dir Wind Speed Gust Speed Precip Events Conditions
12:53 AM 77.0 °F - 66.9 °F 71% 29.91 in 10.0 mi Calm Calm - 0.00 in   Mostly Cloudy
1:53 AM 77.0 °F - 68.0 °F 74% 29.90 in 10.0 mi ENE 9.2 mph - 0.00 in   Scattered Clouds
2:53 AM 75.0 °F - 66.9 °F 76% 29.89 in 10.0 mi West 4.6 mph - N/A   Partly Cloudy
3:53 AM 75.0 °F - 66.9 °F 76% 29.89 in 10.0 mi WNW 3.5 mph - N/A   Partly Cloudy
4:53 AM 75.0 °F - 66.0 °F 73% 29.89 in 10.0 mi NNW 3.5 mph - N/A   Partly Cloudy
5:53 AM 75.0 °F - 66.9 °F 76% 29.90 in 10.0 mi NNW 4.6 mph - N/A   Partly Cloudy
6:53 AM 75.0 °F - 66.9 °F 76% 29.91 in 10.0 mi North 3.5 mph - N/A   Scattered Clouds
7:53 AM 79.0 °F - 66.9 °F 66% 29.93 in 10.0 mi NW 4.6 mph - N/A   Scattered Clouds
8:53 AM 82.9 °F 85.0 °F 66.0 °F 56% 29.93 in 10.0 mi Variable 5.8 mph - N/A   Scattered Clouds
9:53 AM 84.9 °F 85.9 °F 63.0 °F 48% 29.93 in 10.0 mi NE 10.4 mph - N/A   Scattered Clouds
10:53 AM 87.1 °F 88.3 °F 64.0 °F 46% 29.92 in 10.0 mi NE 13.8 mph 19.6 mph N/A   Scattered Clouds
11:53 AM 88.0 °F 89.6 °F 64.9 °F 46% 29.89 in 10.0 mi NE 9.2 mph 19.6 mph N/A   Scattered Clouds
12:53 PM 88.0 °F 90.3 °F 66.0 °F 48% 29.88 in 10.0 mi ENE 12.7 mph 23.0 mph N/A   Scattered Clouds
1:53 PM 88.0 °F 89.3 °F 64.0 °F 45% 29.86 in 10.0 mi ENE 15.0 mph 21.9 mph N/A   Scattered Clouds
2:53 PM 88.0 °F 88.7 °F 63.0 °F 43% 29.85 in 10.0 mi NE 16.1 mph 24.2 mph N/A   Scattered Clouds
3:53 PM 87.1 °F 88.3 °F 64.0 °F 46% 29.83 in 10.0 mi NNE 15.0 mph 26.5 mph N/A   Scattered Clouds
4:53 PM 86.0 °F 87.3 °F 64.0 °F 48% 29.84 in 10.0 mi NE 12.7 mph 24.2 mph N/A   Scattered Clouds
5:53 PM 84.0 °F 85.8 °F 64.9 °F 53% 29.85 in 10.0 mi NNE 9.2 mph - N/A   Scattered Clouds
6:53 PM 81.0 °F 83.0 °F 66.0 °F 60% 29.87 in 10.0 mi NE 8.1 mph - N/A   Scattered Clouds
7:53 PM 80.1 °F 82.3 °F 66.9 °F 64% 29.89 in 10.0 mi NNE 4.6 mph - N/A   Scattered Clouds
8:53 PM 80.1 °F 82.3 °F 66.9 °F 64% 29.91 in 10.0 mi NE 3.5 mph - N/A   Scattered Clouds
9:53 PM 79.0 °F - 66.9 °F 66% 29.91 in 10.0 mi NE 6.9 mph - N/A   Clear
10:53 PM 79.0 °F - 66.9 °F 66% 29.91 in 10.0 mi ENE 9.2 mph - N/A   Partly Cloudy
11:53 PM 79.0 °F - 68.0 °F 69% 29.91 in 10.0 mi ENE 9.2 mph - N/A   Partly Cloudy